Leeuwarden, Netherlands

8:34 AM CEST on August 21, 2017 (GMT +0200)
Leeuwarden Air Base

Weather History for EHLW - May, 2012

Change the Weather History Date:

Saturday, May 5, 2012

  Actual Average Record
Temperature  
Mean Temperature 46 °F -  
Max Temperature 51 °F 60 °F 75 °F (2006)
Min Temperature 41 °F 46 °F 32 °F (2011)
Degree Days  
Heating Degree Days 19    
Moisture  
Dew Point 40 °F    
Average Humidity 81    
Maximum Humidity 93    
Minimum Humidity 51    
Precipitation  
Precipitation 0.00 in - - ()
Sea Level Pressure  
Sea Level Pressure 29.75 in    
Wind  
Wind Speed 7 mph ()    
Max Wind Speed 15 mph    
Max Gust Speed -    
Visibility 6.6 miles    
Events Rain    
Averages and records for this station are not official NWS values.
T = Trace of Precipitation, MM = Missing Value Source: Averaged Metar Reports

Daily Weather History Graph

Daily Weather History Graph

Search for Another Location

Airport or City:

Trip Planner

Search our weather history database for the weather conditions in past years. The results will help you decide how hot, cold, wet, or windy it might be!

Date:

Astronomy

May. 05, 2012 Rise Set
Actual Time 5:54 AM CEST 9:13 PM CEST
Civil Twilight 5:13 AM CEST 9:55 PM CEST
Nautical Twilight 4:17 AM CEST 10:51 PM CEST
Astronomical Twilight 3:00 AM CEST 12:11 AM CEST
Moon 8:48 PM CEST (5/5) 5:10 AM CEST (5/5)
Length of Visible Light 16h 41m
Length of Day
15h 18m
Waxing Gibbous, 99% of the Moon is Illuminated
May 5
Waxing Gibbous
May 6
Full
May 12
Last Quarter
May 21
New
May 28
First Quarter

Hourly Weather History & Observations

Time (CEST) Temp. Windchill Dew Point Humidity Pressure Visibility Wind Dir Wind Speed Gust Speed Precip Events Conditions
12:04 AM 46.4 °F 43.5 °F 42.8 °F 87% 29.68 in 6.2 mi NNW 5.8 mph - N/A   Mostly Cloudy
12:25 AM 44.6 °F 42.2 °F 42.8 °F 93% 29.68 in 6.2 mi NNW 4.6 mph - N/A   Overcast
12:29 AM 44.6 °F 42.2 °F 42.8 °F 93% 29.68 in 6.2 mi NNW 4.6 mph - N/A   Mostly Cloudy
12:55 AM 44.6 °F 42.2 °F 42.8 °F 93% 29.68 in 6.2 mi NNW 4.6 mph - N/A   Overcast
1:01 AM 44.6 °F 42.2 °F 42.8 °F 93% 29.68 in 6.2 mi NNW 4.6 mph - N/A   Overcast
1:08 AM 46.4 °F 45.2 °F 42.8 °F 87% 29.68 in 6.2 mi NNW 3.5 mph - N/A   Mostly Cloudy
1:09 AM 46.4 °F 45.2 °F 42.8 °F 87% 29.68 in 6.2 mi NNW 3.5 mph - N/A   Mostly Cloudy
1:16 AM 46.4 °F 45.2 °F 42.8 °F 87% 29.68 in 6.2 mi NNW 3.5 mph - N/A   Overcast
1:17 AM 46.4 °F 44.3 °F 44.6 °F 93% 29.68 in 6.2 mi NNW 4.6 mph - N/A   Mostly Cloudy
1:25 AM 46.4 °F 43.5 °F 44.6 °F 93% 29.68 in 4.3 mi NNW 5.8 mph - N/A   Mostly Cloudy
1:26 AM 46.4 °F 43.5 °F 44.6 °F 93% 29.68 in 5.6 mi NNW 5.8 mph - N/A   Mostly Cloudy
1:33 AM 46.4 °F 43.5 °F 44.6 °F 93% 29.68 in 5.0 mi NW 5.8 mph - N/A   Drizzle
1:34 AM 46.4 °F 43.5 °F 44.6 °F 93% 29.68 in 6.2 mi NW 5.8 mph - N/A   Light Drizzle
1:43 AM 46.4 °F 44.3 °F 44.6 °F 93% 29.68 in 6.2 mi NNW 4.6 mph - N/A   Overcast
1:48 AM 46.4 °F 44.3 °F 44.6 °F 93% 29.68 in 6.2 mi NNW 4.6 mph - N/A   Overcast
1:55 AM 46.4 °F 43.5 °F 44.6 °F 93% 29.68 in 6.2 mi NNW 5.8 mph - N/A   Overcast
1:57 AM 46.4 °F 42.9 °F 44.6 °F 93% 29.68 in 6.2 mi NNW 6.9 mph - N/A   Overcast
2:00 AM 46 °F - 44 °F 89% 29.69 in 12 mi NNW 6.7 mph - - Rain Drizzle
2:08 AM 46.4 °F 41.9 °F 44.6 °F 93% 29.68 in 6.2 mi North 9.2 mph - N/A   Overcast
2:17 AM 46.4 °F 40.4 °F 42.8 °F 87% 29.68 in 6.2 mi North 13.8 mph - N/A   Mostly Cloudy
2:21 AM 44.6 °F 37.8 °F 42.8 °F 93% 29.68 in 6.2 mi North 15.0 mph - N/A   Mostly Cloudy
2:25 AM 44.6 °F 38.4 °F 42.8 °F 93% 29.68 in 6.2 mi NNE 12.7 mph - N/A   Mostly Cloudy
2:29 AM 44.6 °F 38.4 °F 42.8 °F 93% 29.68 in 6.2 mi NNE 12.7 mph - N/A   Mostly Cloudy
2:42 AM 44.6 °F 39.2 °F 42.8 °F 93% 29.68 in 6.2 mi NNE 10.4 mph - N/A   Mostly Cloudy
2:55 AM 44.6 °F 39.7 °F 42.8 °F 93% 29.68 in 6.2 mi NNE 9.2 mph - N/A   Mostly Cloudy
2:59 AM 44.6 °F 39.7 °F 42.8 °F 93% 29.68 in 6.2 mi NNE 9.2 mph - N/A   Overcast
3:25 AM 44.6 °F 39.7 °F 42.8 °F 93% 29.68 in 6.2 mi NNE 9.2 mph - N/A   Overcast
3:35 AM 44.6 °F 40.2 °F 42.8 °F 93% 29.68 in 6.2 mi NNE 8.1 mph - N/A   Overcast
3:55 AM 44.6 °F 40.7 °F 42.8 °F 93% 29.68 in 6.2 mi NNE 6.9 mph - N/A   Mostly Cloudy
4:01 AM 44.6 °F 41.4 °F 42.8 °F 93% 29.68 in 6.2 mi NNE 5.8 mph - N/A   Mostly Cloudy
4:13 AM 44.6 °F 42.2 °F 42.8 °F 93% 29.68 in 6.2 mi NNE 4.6 mph - N/A   Overcast
4:25 AM 44.6 °F 43.1 °F 42.8 °F 93% 29.68 in 5.6 mi NNE 3.5 mph - N/A Rain Light Rain
4:34 AM 44.6 °F 42.2 °F 42.8 °F 93% 29.68 in 6.2 mi NNE 4.6 mph - N/A   Light Drizzle
4:44 AM 44.6 °F 41.4 °F 41.0 °F 87% 29.68 in 6.2 mi NNE 5.8 mph - N/A   Overcast
4:55 AM 44.6 °F 40.7 °F 41.0 °F 87% 29.68 in 6.2 mi NNE 6.9 mph - N/A   Overcast
5:25 AM 42.8 °F 38.6 °F 41.0 °F 93% 29.71 in 6.2 mi NNE 6.9 mph - N/A   Overcast
5:55 AM 42.8 °F 38.6 °F 39.2 °F 87% 29.71 in 6.2 mi NNE 6.9 mph - N/A   Overcast
6:25 AM 42.8 °F 38.6 °F 41.0 °F 93% 29.71 in 6.2 mi NNE 6.9 mph - N/A   Overcast
6:37 AM 42.8 °F 37.5 °F 41.0 °F 93% 29.71 in 6.2 mi NNE 9.2 mph - N/A   Mostly Cloudy
6:40 AM 42.8 °F 38.0 °F 41.0 °F 93% 29.71 in 6.2 mi NNE 8.1 mph - N/A   Mostly Cloudy
6:55 AM 42.8 °F 38.0 °F 39.2 °F 87% 29.71 in 6.2 mi NNE 8.1 mph - N/A   Overcast
7:25 AM 42.8 °F 38.6 °F 39.2 °F 87% 29.71 in 6.2 mi NNE 6.9 mph - N/A   Mostly Cloudy
7:55 AM 44.6 °F 40.2 °F 39.2 °F 81% 29.74 in 6.2 mi NNE 8.1 mph - N/A   Unknown
8:00 AM 45 °F - 40 °F 75% 29.74 in 15 mi NNE 6.7 mph - -   Partly Cloudy
8:25 AM 46.4 °F 41.5 °F 39.2 °F 76% 29.74 in 6.2 mi NE 10.4 mph - N/A   Unknown
8:32 AM 46.4 °F 41.9 °F 39.2 °F 76% 29.74 in 6.2 mi NE 9.2 mph - N/A   Scattered Clouds
8:55 AM 46.4 °F 41.5 °F 39.2 °F 76% 29.74 in 6.2 mi NE 10.4 mph - N/A   Scattered Clouds
9:25 AM 48.2 °F - 39.2 °F 71% 29.74 in 6.2 mi NNE 10.4 mph - N/A   Overcast
9:55 AM 46.4 °F 40.7 °F 37.4 °F 71% 29.77 in 6.2 mi NE 12.7 mph - N/A   Scattered Clouds
10:25 AM 48.2 °F - 39.2 °F 71% 29.77 in 6.2 mi NNE 11.5 mph - N/A   Overcast
10:55 AM 46.4 °F 40.7 °F 37.4 °F 71% 29.77 in 6.2 mi NNE 12.7 mph - N/A   Overcast
11:25 AM 46.4 °F 41.1 °F 37.4 °F 71% 29.77 in 6.2 mi NNE 11.5 mph - N/A   Mostly Cloudy
11:55 AM 48.2 °F - 37.4 °F 66% 29.77 in 6.2 mi NE 12.7 mph - N/A   Overcast
12:25 PM 48.2 °F - 37.4 °F 66% 29.80 in 6.2 mi NE 12.7 mph - N/A   Overcast
12:55 PM 48.2 °F - 37.4 °F 66% 29.80 in 6.2 mi NE 12.7 mph - N/A   Overcast
1:25 PM 50.0 °F - 37.4 °F 62% 29.80 in 6.2 mi NNE 15.0 mph - N/A   Overcast
1:55 PM 50.0 °F - 39.2 °F 66% 29.80 in 6.2 mi NNE 13.8 mph - N/A   Partly Cloudy
2:00 PM 50 °F - 37 °F 51% 29.81 in 14 mi NE 13.4 mph - -   Scattered Clouds
2:25 PM 50.0 °F - 37.4 °F 62% 29.80 in 6.2 mi NNE 13.8 mph - N/A   Mostly Cloudy
2:55 PM 50.0 °F - 39.2 °F 66% 29.80 in 6.2 mi NNE 13.8 mph - N/A   Scattered Clouds
3:25 PM 48.2 °F - 35.6 °F 62% 29.83 in 6.2 mi NNE 12.7 mph - N/A   Scattered Clouds
3:55 PM 48.2 °F - 37.4 °F 66% 29.83 in 6.2 mi NNE 12.7 mph - N/A   Overcast
4:25 PM 48.2 °F - 37.4 °F 66% 29.83 in 6.2 mi NE 13.8 mph - N/A   Overcast
4:55 PM 50.0 °F - 37.4 °F 62% 29.83 in 6.2 mi NNE 12.7 mph - N/A   Mostly Cloudy
5:25 PM 46.4 °F 40.7 °F 33.8 °F 62% 29.83 in 6.2 mi NNE 12.7 mph - N/A   Mostly Cloudy
5:55 PM 48.2 °F - 37.4 °F 66% 29.83 in 6.2 mi North 10.4 mph - N/A   Mostly Cloudy
5:58 PM 48.2 °F - 37.4 °F 66% 29.83 in 6.2 mi North 11.5 mph - N/A   Mostly Cloudy
6:25 PM 46.4 °F 40.7 °F 33.8 °F 62% 29.83 in 6.2 mi North 12.7 mph - N/A   Overcast
6:55 PM 46.4 °F 41.5 °F 33.8 °F 62% 29.83 in 6.2 mi NNE 10.4 mph - N/A   Overcast
7:25 PM 44.6 °F 38.8 °F 33.8 °F 66% 29.83 in 6.2 mi NNE 11.5 mph - N/A   Overcast
7:55 PM 44.6 °F 39.2 °F 33.8 °F 66% 29.83 in 6.2 mi NE 10.4 mph - N/A   Mostly Cloudy
8:00 PM 44 °F - 34 °F 59% 29.86 in 19 mi NE 11.2 mph - -   Overcast
8:02 PM 44.6 °F 39.2 °F 35.6 °F 71% 29.83 in 6.2 mi NE 10.4 mph - N/A   Mostly Cloudy
8:25 PM 44.6 °F 39.7 °F 35.6 °F 71% 29.86 in 6.2 mi NNE 9.2 mph - N/A   Mostly Cloudy
8:55 PM 42.8 °F 37.5 °F 35.6 °F 76% 29.86 in 6.2 mi NNE 9.2 mph - N/A   Scattered Clouds
9:25 PM 42.8 °F 38.0 °F 35.6 °F 76% 29.86 in 6.2 mi NNE 8.1 mph - N/A   Overcast
9:55 PM 42.8 °F 38.0 °F 35.6 °F 76% 29.86 in 6.2 mi NE 8.1 mph - N/A   Overcast
10:25 PM 42.8 °F 38.6 °F 35.6 °F 76% 29.86 in 6.2 mi NE 6.9 mph - N/A   Overcast
10:55 PM 42.8 °F 38.0 °F 35.6 °F 76% 29.86 in 6.2 mi NE 8.1 mph - N/A   Overcast
11:25 PM 41.0 °F 36.4 °F 35.6 °F 81% 29.86 in 6.2 mi NE 6.9 mph - N/A   Overcast
11:55 PM 41.0 °F 36.4 °F 35.6 °F 81% 29.86 in 6.2 mi NNE 6.9 mph - N/A   Overcast